< < Back
Terminal Aerodrome Forecast


Current Version              Previous Versions:   1  2  3  4  5  6  7  8  9  

Terminal Aerodrome Forecast

115
FTUS42 KMLB 271819 AAA
TAFDAB
TAF AMD
KDAB 271819Z 2718/2818 24014KT P6SM VCTS SCT035CB BKN050
      TEMPO 2718/2720 VRB20G30KT 3SM TSRA BKN025CB
     FM280000 27013KT P6SM VCSH BKN035
     FM280300 29011KT P6SM BKN250=

Latest METAR

907
SAUS80 KWBC 272200 RRA
MTRDAB
METAR KDAB 272153Z 23012KT 10SM FEW013 FEW055 OVC100 19/18 A2977 RMK AO2
RAE03 SLP080 P0000 T01940178


USA.gov is the U.S. government's official web portal to all federal, state and local government web resources and services.